STARLINK-5702, 55622

Orbit data source: Space-Track

STARLINK-5702, 55622 is a payload satellite owned by SpaceX/Seattle (US) in LEO that was launched on Sun, 12 Feb 2023 UTC via an FALCON 9 launch vehicle from the Air Force Eastern Test Range (AFETR). Payload-class satellites include a variety of spacecraft equipped with specific instruments for various scientific and technological missions. These include communications satellites like Starlink; space stations such as the ISS; scientific satellites like the Hubble; Earth observation satellites from companies like Planet Labs, Umbra, and HawkEye 360; GPS; miniature CubeSats for education and research; and military/defense satellites.

Loading next visibility...
Identifier
55622, 2023-020BF
Orbit
LEO
Country
Flag of USUS
Related business
Manufacturer
SpaceX/Seattle
Mission
Operational Commercial Communications
Bus & Motor
STARLINK, Unknown motor
Mass
305 kg wet, ~290 kg dry
Launch date (UTC)
2023-02-12 (3 years ago)
Launch vehicle
FALCON 9
Launch site
Air Force Eastern Test Range (AFETR)
Object type
Payload
Rocket body
Debris
Shape & HBR
Box + 1 Pan, 10.1 m
Radar Cross Section
13.562 m², Large (>1 m²)

Expand to show TLE details & history
Last TLE update: 10 hours ago

TLE from 10 hours ago
0 STARLINK-5702
1 55622U 23020BF  25340.82746559 -.00000017  00000-0  13848-4 0  9994
2 55622  43.0020 135.9753 0001224 260.6114  99.4590 15.02532519155104
Epoch: 2025-12-06T19:51Z
TLE epoch observation values (Epoch: 2025-12-06T19:51:33.026Z)
Latitude
-0.00004°
Longitude
122.23804°
Altitude
559.008 km
Speed
7.584 km/s
True Right ascension
09h 03m 54s
True Declination
0° 00' 00"
Sunlit
Object was in full shadow at epoch
Visualization orbit readout
Latitude
Unknown
Longitude
Unknown
Altitude
Unknown
Speed
Unknown
Apparent Right ascension
Unknown
Apparent Declination
Unknown
Sunlit
N/A
Visualization observer readout
Local Sidereal Time
04:18:28
Azimuth
Unknown
Elevation
Unknown
Doppler factor
Unknown
Orbital elements
Apogee altitude
561.863 km
Perigee altitude
560.164 km
Semi-major axis
6,939.151 km
Eccentricity
0.00012
Inclination
43.002°
RAAN
135.9753°
Arg. of periapsis
260.6114°
True anomaly
99.47283°
Mean anomaly
99.459°
Eccentric anomaly
99.46592°
Mean motion
3.75477 °/min
Orbital period
95.88 mins
BSTAR
0.000013848
Loading maneuver chart data...
Computing Atmospheric mass density...
Loading historical data...
Loading historical data...
Loading historical data...
Loading historical data...
Loading historical data...
Loading historical data...
Loading historical data...

Documentation

Showing up to 5 results
|